TimeEDT,TemperatureF,Dew PointF,Humidity,Sea Level PressureIn,VisibilityMPH,Wind Direction,Wind SpeedMPH,Gust SpeedMPH,PrecipitationIn,Events,Conditions,WindDirDegrees,DateUTC
12:56 AM,68.0,64.9,90,30.17,10.0,West,4.6,-,N/A,,Clear,280,2012-10-05 04:56:00
1:56 AM,68.0,64.9,90,30.17,10.0,WNW,4.6,-,N/A,,Clear,300,2012-10-05 05:56:00
2:56 AM,66.9,64.0,90,30.15,10.0,NW,4.6,-,N/A,,Clear,310,2012-10-05 06:56:00
3:56 AM,66.0,64.0,93,30.15,10.0,Calm,Calm,-,N/A,,Clear,0,2012-10-05 07:56:00
4:56 AM,66.0,63.0,90,30.15,10.0,WNW,3.5,-,N/A,,Clear,300,2012-10-05 08:56:00
5:56 AM,66.0,63.0,90,30.16,10.0,WNW,4.6,-,N/A,,Clear,300,2012-10-05 09:56:00
6:56 AM,64.9,62.1,90,30.16,8.0,NW,3.5,-,N/A,,Clear,320,2012-10-05 10:56:00
7:56 AM,66.9,63.0,87,30.16,7.0,NW,5.8,-,N/A,,Mostly Cloudy,320,2012-10-05 11:56:00
8:56 AM,70.0,62.1,76,30.16,10.0,North,4.6,-,N/A,,Mostly Cloudy,350,2012-10-05 12:56:00
9:56 AM,73.9,61.0,64,30.17,10.0,NNE,3.5,-,N/A,,Clear,20,2012-10-05 13:56:00
10:56 AM,75.9,61.0,60,30.15,10.0,North,4.6,-,N/A,,Mostly Cloudy,350,2012-10-05 14:56:00
11:56 AM,79.0,60.1,52,30.14,10.0,Variable,3.5,-,N/A,,Mostly Cloudy,0,2012-10-05 15:56:00
12:56 PM,81.0,57.0,44,30.12,10.0,NNW,4.6,-,N/A,,Clear,340,2012-10-05 16:56:00
1:56 PM,82.0,57.0,42,30.11,10.0,Variable,3.5,-,N/A,,Clear,0,2012-10-05 17:56:00
2:56 PM,82.9,53.1,36,30.09,10.0,NE,3.5,-,N/A,,Clear,40,2012-10-05 18:56:00
3:56 PM,82.0,54.0,38,30.08,10.0,NW,4.6,-,N/A,,Clear,320,2012-10-05 19:56:00
4:56 PM,80.1,54.0,40,30.06,10.0,West,4.6,-,N/A,,Clear,280,2012-10-05 20:56:00
5:56 PM,77.0,60.1,56,30.05,10.0,Calm,Calm,-,N/A,,Clear,0,2012-10-05 21:56:00
6:56 PM,72.0,64.0,76,30.05,10.0,Calm,Calm,-,N/A,,Clear,0,2012-10-05 22:56:00
7:56 PM,68.0,64.0,87,30.06,10.0,Calm,Calm,-,N/A,,Clear,0,2012-10-05 23:56:00
8:56 PM,66.0,63.0,90,30.06,10.0,Calm,Calm,-,N/A,,Clear,0,2012-10-06 00:56:00
9:56 PM,64.9,62.1,90,30.06,10.0,Calm,Calm,-,N/A,,Clear,0,2012-10-06 01:56:00
10:56 PM,64.0,61.0,90,30.06,10.0,Calm,Calm,-,N/A,,Clear,0,2012-10-06 02:56:00
11:56 PM,63.0,61.0,93,30.05,8.0,Calm,Calm,-,N/A,,Clear,0,2012-10-06 03:56:00